Total_Precipitation_Accumulation
1.63 1.73 1.56 1.42 1.26 1.52 1.79 1.82 1.66 1.79 1.82 1.91 1.88 1.87 1.89 1.60 1.40 1.29 1.34 1.58 1.55 1.50 1.57 1.62 1.57 1.48 1.42 1.29 1.13 0.97 0.84 0.78 0.71 0.63 0.55 0.47 0.38 0.30 0.26 0.17 0.11 0.06 0.05
1.49 1.54 1.48 1.38 1.31 1.47 1.67 1.69 1.68 1.88 1.97 1.97 1.70 1.63 1.61 1.64 1.50 1.28 1.40 1.56 1.62 1.48 1.53 1.72 1.77 1.74 1.75 1.62 1.41 1.24 1.05 0.90 0.74 0.57 0.52 0.50 0.41 0.32 0.34 0.37 0.40 0.14 0.05
1.18 1.29 1.31 1.27 1.30 1.36 1.40 1.38 1.41 1.60 1.59 1.52 1.39 1.34 1.40 1.43 1.43 1.40 1.27 1.31 1.46 1.53 1.48 1.61 1.71 1.74 1.86 1.84 1.70 1.50 1.27 1.04 0.81 0.58 0.45 0.44 0.40 0.29 0.26 0.33 0.38 0.21 0.09
0.90 0.99 0.96 0.98 1.03 1.08 1.08 1.07 1.10 1.21 1.30 1.41 1.41 1.31 1.43 1.47 1.41 1.48 1.45 1.33 1.44 1.40 1.63 1.77 1.75 1.68 1.86 2.04 2.04 1.86 1.54 1.17 0.92 0.72 0.55 0.43 0.39 0.31 0.25 0.25 0.25 0.23 0.13
0.81 0.85 0.82 0.84 0.79 0.80 0.82 0.79 0.87 0.99 1.08 1.16 1.11 1.17 1.16 1.20 1.20 1.18 1.31 1.19 1.26 1.35 1.51 1.62 1.73 1.66 1.89 2.23 2.49 2.55 2.20 1.59 1.16 0.96 0.85 0.71 0.57 0.43 0.34 0.33 0.27 0.22 0.18
0.73 0.71 0.66 0.62 0.56 0.58 0.63 0.67 0.77 0.84 0.87 0.93 0.87 0.93 0.91 0.86 0.91 0.96 0.92 0.97 1.03 1.00 1.20 1.38 1.52 1.31 1.63 2.07 2.38 2.62 2.65 2.29 1.77 1.34 1.16 1.04 0.89 0.64 0.40 0.33 0.32 0.28 0.23
0.64 0.58 0.49 0.48 0.43 0.42 0.44 0.47 0.55 0.62 0.65 0.72 0.83 0.83 0.74 0.71 0.72 0.72 0.68 0.73 0.77 0.88 1.11 1.26 1.29 1.24 1.14 1.24 1.39 1.76 2.21 2.51 2.35 1.84 1.48 1.29 1.19 0.90 0.56 0.40 0.34 0.33 0.28
0.52 0.47 0.45 0.41 0.40 0.40 0.39 0.41 0.46 0.50 0.53 0.59 0.67 0.69 0.65 0.65 0.65 0.54 0.61 0.63 0.67 0.83 0.95 0.95 1.03 1.11 0.94 1.08 0.86 1.06 1.55 1.95 2.35 2.29 1.87 1.46 1.28 1.08 0.81 0.61 0.45 0.37 0.33
0.38 0.40 0.41 0.41 0.40 0.36 0.35 0.37 0.37 0.39 0.41 0.43 0.51 0.59 0.60 0.59 0.53 0.49 0.51 0.54 0.61 0.70 0.73 0.82 0.77 0.77 0.85 0.93 0.90 0.85 1.13 1.30 1.78 2.28 2.23 1.79 1.41 1.16 1.02 0.91 0.75 0.55 0.44
0.31 0.31 0.33 0.36 0.35 0.34 0.35 0.28 0.28 0.33 0.35 0.32 0.35 0.43 0.42 0.46 0.53 0.53 0.48 0.50 0.57 0.56 0.55 0.59 0.62 0.64 0.69 0.77 0.80 0.69 0.66 0.83 1.28 1.85 2.16 2.05 1.73 1.35 1.19 1.22 1.37 1.25 0.88
0.39 0.30 0.27 0.29 0.33 0.37 0.42 0.37 0.34 0.32 0.31 0.28 0.29 0.36 0.36 0.31 0.37 0.47 0.48 0.46 0.48 0.40 0.38 0.40 0.41 0.48 0.53 0.62 0.74 0.66 0.55 0.64 0.83 1.17 1.48 1.71 1.74 1.64 1.48 1.48 1.82 2.02 1.82
0.45 0.40 0.37 0.39 0.41 0.38 0.38 0.38 0.40 0.39 0.37 0.34 0.28 0.30 0.43 0.40 0.31 0.37 0.38 0.42 0.42 0.29 0.31 0.35 0.37 0.41 0.48 0.60 0.61 0.54 0.62 0.70 0.71 0.77 0.92 1.11 1.30 1.42 1.51 1.63 1.84 2.13 2.22
0.38 0.38 0.39 0.44 0.45 0.43 0.39 0.35 0.36 0.40 0.46 0.47 0.36 0.28 0.31 0.42 0.37 0.32 0.32 0.31 0.34 0.33 0.37 0.39 0.43 0.50 0.59 0.80 0.71 0.63 0.63 0.69 0.69 0.69 0.68 0.72 0.81 0.93 1.06 1.25 1.50 1.77 2.03
0.43 0.40 0.37 0.36 0.36 0.37 0.38 0.34 0.29 0.30 0.36 0.45 0.47 0.47 0.42 0.35 0.42 0.37 0.31 0.34 0.39 0.44 0.51 0.51 0.60 0.69 0.81 0.90 0.91 0.74 0.57 0.49 0.44 0.44 0.45 0.46 0.50 0.57 0.68 0.78 0.92 1.11 1.28
0.44 0.40 0.35 0.31 0.29 0.30 0.32 0.34 0.31 0.30 0.30 0.30 0.37 0.50 0.52 0.41 0.38 0.39 0.38 0.43 0.57 0.55 0.58 0.69 0.85 0.91 0.85 0.87 0.80 0.67 0.50 0.45 0.40 0.35 0.34 0.34 0.36 0.39 0.43 0.48 0.53 0.64 0.75
0.40 0.38 0.33 0.28 0.25 0.24 0.25 0.29 0.30 0.33 0.37 0.38 0.39 0.44 0.54 0.58 0.51 0.48 0.48 0.53 0.66 0.66 0.67 0.72 0.86 0.89 0.78 0.64 0.59 0.60 0.52 0.50 0.44 0.36 0.30 0.30 0.33 0.33 0.32 0.35 0.34 0.35 0.39
0.42 0.40 0.36 0.32 0.26 0.23 0.24 0.27 0.29 0.33 0.38 0.46 0.54 0.53 0.53 0.63 0.71 0.66 0.64 0.64 0.69 0.75 0.74 0.71 0.84 0.88 0.77 0.59 0.53 0.55 0.56 0.57 0.47 0.43 0.35 0.32 0.31 0.32 0.31 0.32 0.34 0.32 0.30
0.49 0.45 0.40 0.38 0.31 0.27 0.28 0.30 0.29 0.32 0.39 0.48 0.62 0.77 0.78 0.73 0.71 0.69 0.68 0.68 0.73 0.85 0.85 0.77 0.83 0.91 0.87 0.77 0.68 0.57 0.48 0.50 0.54 0.55 0.47 0.39 0.34 0.32 0.31 0.30 0.30 0.30 0.31
0.51 0.54 0.50 0.46 0.41 0.40 0.40 0.37 0.35 0.36 0.37 0.41 0.52 0.74 0.93 1.07 0.98 0.80 0.70 0.67 0.73 0.87 0.98 0.91 0.90 1.04 1.06 0.97 0.83 0.64 0.52 0.50 0.46 0.49 0.50 0.45 0.39 0.36 0.33 0.31 0.29 0.28 0.25
0.54 0.61 0.62 0.61 0.56 0.51 0.47 0.44 0.48 0.48 0.44 0.42 0.46 0.54 0.65 0.86 1.02 1.07 0.94 0.80 0.78 0.85 0.95 0.96 1.05 1.28 1.33 1.21 0.96 0.77 0.67 0.57 0.50 0.42 0.43 0.44 0.41 0.36 0.34 0.32 0.29 0.27 0.25
0.64 0.73 0.76 0.74 0.71 0.66 0.56 0.55 0.61 0.54 0.56 0.54 0.52 0.52 0.48 0.54 0.67 0.82 0.91 0.97 0.95 0.88 0.93 0.99 1.22 1.63 1.67 1.43 1.05 0.86 0.78 0.74 0.64 0.52 0.46 0.38 0.36 0.33 0.31 0.33 0.34 0.32 0.28
0.97 0.98 0.95 0.92 0.87 0.73 0.68 0.64 0.62 0.59 0.61 0.62 0.61 0.58 0.51 0.46 0.47 0.55 0.65 0.78 0.92 0.95 0.95 1.02 1.22 1.52 1.68 1.57 1.31 1.10 0.87 0.73 0.66 0.61 0.56 0.49 0.42 0.38 0.33 0.29 0.33 0.34 0.32
1.11 1.12 1.11 1.08 1.02 0.98 0.85 0.67 0.59 0.58 0.58 0.62 0.68 0.71 0.54 0.40 0.46 0.49 0.56 0.59 0.65 0.75 0.86 0.94 1.08 1.28 1.56 1.69 1.53 1.15 0.98 0.88 0.70 0.63 0.63 0.57 0.54 0.48 0.40 0.36 0.39 0.32 0.32
0.98 0.95 0.93 0.92 0.96 0.91 0.81 0.63 0.54 0.51 0.55 0.58 0.62 0.64 0.61 0.49 0.48 0.51 0.54 0.53 0.50 0.50 0.56 0.67 0.79 1.01 1.29 1.61 1.77 1.52 1.32 1.15 0.94 0.80 0.67 0.62 0.61 0.55 0.47 0.42 0.45 0.39 0.33
0.82 0.74 0.70 0.72 0.78 0.81 0.77 0.62 0.59 0.54 0.55 0.55 0.55 0.58 0.60 0.54 0.47 0.39 0.43 0.44 0.43 0.43 0.42 0.47 0.57 0.75 1.00 1.31 1.65 1.77 1.48 1.14 0.99 0.82 0.70 0.61 0.56 0.60 0.58 0.48 0.46 0.48 0.41
0.92 0.86 0.78 0.75 0.75 0.83 0.82 0.65 0.60 0.56 0.59 0.61 0.71 0.73 0.67 0.57 0.49 0.36 0.37 0.42 0.40 0.37 0.43 0.44 0.45 0.53 0.67 0.92 1.26 1.45 1.45 1.16 0.92 0.81 0.60 0.53 0.51 0.54 0.59 0.51 0.41 0.40 0.40